EW4264 Weather Reports


Display with metric or nautical units.
time (UTC)temp
F
wind
direction
speed
MPH
gust
MPH
rain 1hr
in
rain 24hr
in
rain mn
in
humidity
%
barometer
mb
20180421072305 59 261 7.0 20.0 0.00 0.00 0.00 83 1014.8
20180421070800 59 298 8.0 17.0 0.00 0.00 0.00 82 1015.2
20180421065259 59 255 7.0 11.0 0.00 0.00 0.00 81 1015.4
20180421063759 59 261 8.0 18.0 0.00 0.00 0.00 80 1015.5
20180421062259 59 265 4.0 11.0 0.00 0.00 0.00 79 1015.7
20180421060800 59 281 7.0 13.0 0.00 0.00 0.00 77 1015.9
20180421055253 59 275 6.0 14.0 0.00 0.00 0.00 76 1016.2
20180421053750 59 232 11.0 18.0 0.00 0.00 0.00 74 1016.1
20180421052247 60 276 9.0 15.0 0.00 0.00 0.00 72 1016.2
20180421050743 60 296 8.0 17.0 0.00 0.00 0.00 70 1016.7
20180421045240 60 281 8.0 13.0 0.00 0.00 0.00 69 1016.9
20180421043740 60 287 6.0 14.0 0.00 0.00 0.00 68 1017.2
20180421042244 60 292 7.0 16.0 0.00 0.00 0.00 66 1017.2
20180421040740 60 273 6.0 14.0 0.00 0.00 0.00 65 1017.2
20180421035239 61 258 8.0 14.0 0.00 0.00 0.00 64 1017.3
20180421033736 61 241 6.0 13.0 0.00 0.00 0.00 65 1017.5
20180421032238 61 265 6.0 15.0 0.00 0.00 0.00 64 1017.5
20180421030734 61 259 8.0 15.0 0.00 0.00 0.00 63 1017.8
20180421025233 61 296 7.0 12.0 0.00 0.00 0.00 62 1017.9
20180421023736 61 280 5.0 19.0 0.00 0.00 0.00 62 1017.9
20180421022232 61 302 7.0 15.0 0.00 0.00 0.00 63 1017.5
20180421020732 61 279 6.0 14.0 0.00 0.00 0.00 63 1017.5
20180421015231 62 284 5.0 12.0 0.00 0.00 0.00 63 1017.4
20180421013731 62 309 9.0 15.0 0.00 0.00 0.00 63 1017.2
20180421012230 62 287 4.0 14.0 0.00 0.00 0.00 63 1017.0
20180421010729 62 274 9.0 16.0 0.00 0.00 0.00 62 1017.0
20180421005229 63 267 8.0 15.0 0.00 0.00 0.00 63 1017.0
20180421003728 63 240 8.0 16.0 0.00 0.00 0.00 62 1017.2
20180421002230 63 254 7.0 13.0 0.00 0.00 0.00 62 1017.2
20180421000729 63 225 8.0 16.0 0.00 0.00 0.00 62 1017.0
20180420235224 64 268 10.0 16.0 0.00 0.00 0.00 61 1017.4
20180420233723 64 257 8.0 14.0 0.00 0.00 0.00 61 1017.9
20180420232222 64 288 6.0 13.0 0.00 0.00 0.00 60 1018.2
20180420230721 65 302 8.0 19.0 0.00 0.00 0.00 59 1017.8
20180420225219 66 276 9.0 17.0 0.00 0.00 0.00 57 1017.9
20180420223719 65 275 10.0 18.0 0.00 0.00 0.00 59 1017.9
20180420222220 66 247 9.0 16.0 0.00 0.00 0.00 57 1017.9
20180420220717 66 289 11.0 19.0 0.00 0.00 0.00 58 1017.6
20180420215216 65 294 8.0 19.0 0.00 0.00 0.00 59 1018.0
20180420213715 66 273 5.0 16.0 0.00 0.00 0.00 60 1018.4
20180420212213 65 285 5.0 13.0 0.00 0.00 0.00 61 1018.4
20180420210714 65 305 7.0 17.0 0.00 0.00 0.00 60 1018.4
20180420205210 65 295 8.0 15.0 0.00 0.00 0.00 59 1019.1
20180420203706 65 297 10.0 15.0 0.00 0.00 0.00 59 1019.4
20180420202208 66 281 7.0 15.0 0.00 0.00 0.00 59 1019.7
20180420200702 66 272 8.0 15.0 0.00 0.00 0.00 58 1020.0
20180420195200 67 284 7.0 15.0 0.00 0.00 0.00 56 1020.3
20180420193659 67 283 9.0 15.0 0.00 0.00 0.00 56 1020.7
20180420192159 67 275 9.0 15.0 0.00 0.00 0.00 55 1020.7
20180420190658 67 272 7.0 18.0 0.00 0.00 0.00 57 1020.7
20180420185157 67 246 8.0 14.0 0.00 0.00 0.00 56 1020.7
20180420183653 66 250 9.0 14.0 0.00 0.00 0.00 56 1020.9
20180420182149 65 288 8.0 15.0 0.00 0.00 0.00 57 1021.4
20180420180650 65 267 8.0 18.0 0.00 0.00 0.00 57 1021.7
20180420175145 64 279 10.0 15.0 0.00 0.00 0.00 59 1021.8
20180420173645 62 298 10.0 16.0 0.00 0.00 0.00 62 1021.9
20180420172140 62 318 9.0 18.0 0.00 0.00 0.00 61 1022.1
20180420170640 62 251 9.0 16.0 0.00 0.00 0.00 61 1022.4
20180420165139 63 275 9.0 15.0 0.00 0.00 0.00 57 1022.9
20180420163637 62 284 7.0 12.0 0.00 0.00 0.00 60 1023.1
20180420162140 61 257 7.0 14.0 0.00 0.00 0.00 60 1023.1
20180420160637 60 236 10.0 16.0 0.00 0.00 0.00 61 1022.7
20180420155135 60 266 9.0 13.0 0.00 0.00 0.00 62 1023.3
20180420153631 59 263 7.0 11.0 0.00 0.00 0.00 63 1023.6
20180420152135 59 268 8.0 14.0 0.00 0.00 0.00 63 1023.7
20180420150631 59 254 8.0 13.0 0.00 0.00 0.00 62 1024.0
20180420145131 60 272 7.0 15.0 0.00 0.00 0.00 62 1023.5
20180420143628 59 238 7.0 13.0 0.00 0.00 0.00 63 1023.5
20180420142128 59 248 8.0 14.0 0.00 0.00 0.00 63 1023.5
20180420140628 58 277 6.0 9.0 0.00 0.00 0.00 65 1023.7
20180420135225 57 241 6.0 13.0 0.00 0.00 0.00 66 1023.5
20180420133624 56 286 4.0 9.0 0.00 0.00 0.00 67 1023.4
20180420132221 56 292 7.0 13.0 0.00 0.00 0.00 66 1023.0
20180420130620 56 279 7.0 14.0 0.00 0.00 0.00 65 1022.7
20180420125117 56 251 6.0 14.0 0.00 0.00 0.00 65 1022.4
20180420123619 55 257 3.0 7.0 0.00 0.00 0.00 65 1022.5
20180420122118 56 247 3.0 6.0 0.00 0.00 0.00 64 1022.3
20180420120612 56 228 1.0 5.0 0.00 0.00 0.00 63 1022.6
20180420115112 56 281 2.0 5.0 0.00 0.00 0.00 63 1022.5
20180420113610 56 265 2.0 7.0 0.00 0.00 0.00 62 1022.5
20180420112113 56 274 2.0 4.0 0.00 0.00 0.00 62 1022.3
20180420110610 56 275 3.0 7.0 0.00 0.00 0.00 62 1021.8
20180420105108 56 260 2.0 4.0 0.00 0.00 0.00 62 1021.7
20180420103607 56 266 1.0 2.0 0.00 0.00 0.00 61 1021.6
20180420102111 56 236 2.0 4.0 0.00 0.00 0.00 62 1021.4
20180420100607 56 194 0.0 1.0 0.00 0.00 0.00 60 1021.5
20180420095106 56 240 0.0 4.0 0.00 0.00 0.00 60 1021.5
20180420093604 55 257 2.0 6.0 0.00 0.00 0.00 61 1021.5
20180420092102 55 258 1.0 3.0 0.00 0.00 0.00 61 1021.5
20180420090602 56 258 0.0 0.0 0.00 0.00 0.00 58 1021.8
20180420085100 56 258 0.0 1.0 0.00 0.00 0.00 57 1021.9
20180420083559 56 258 1.0 2.0 0.00 0.00 0.00 57 1022.1
20180420082057 57 258 0.0 2.0 0.00 0.00 0.00 56 1022.3
20180420080557 57 258 1.0 2.0 0.00 0.00 0.00 55 1022.4
20180420075059 57 258 1.0 4.0 0.00 0.00 0.00 56 1022.4
20180420073554 57 256 2.0 4.0 0.00 0.00 0.00 55 1022.3